Powrót do katalogu

CZ-6A DEB

AktywnyPO
NORAD 60696·DEBRIS·🇨🇳 China

Wystrzelony Aug 6, 2024 z Taiyuan Satellite Launch Center

Loading…

Następne Przeloty (najbliższe 24 godziny)

TLE

ŚwieżeSource: Space-Track

Epoka: Sep 14, 2026, 11:34 UTC

1 60696U 24140CZ  26257.48263578  .00000191  00000-0  88964-4 0  9993
2 60696  89.0259 267.9798 0059624 270.4500  88.9856 14.15698529108579

Śledź CZ-6A DEB w czasie rzeczywistym z AllMySat

Download on the App Store